Погода в Царицыно

Россия / Омская область     54°49′40″N   74°29′14″E
темп.,
°C
ветер,
м/с
пор.,
м/с
влажн.,
%
обл.,
%
осадки,
мм/ч
давл.,
гПа
погр.,
м
9 мая, вс
вс900:00+16в334093 0.0 101729
03:00+15в3341100 0.0 101628
06:00+13в4749100 0.0 1017109
09:00+17в684793 0.0 1017393
12:00+21всв783397 0.0 10161193
15:00+22в7832100 0.0 10161976
18:00+20в7835100 0.0 10161623
21:00+15всв81342100 0.0 1017803
10 мая, пн
пн1000:00+12в91540100 0.0 1018778
03:00+11в91543100 0.0 1018752
06:00+9в81548100 0.0 1019745
09:00+11в91239100 0.0 1020946
12:00+14в91231100 0.0 10201384
15:00+17в8112771 0.0 10201859
18:00+16всв8929100 0.0 10202013
21:00+12св47429 0.0 1021137
11 мая, вт
вт1100:00+10ссв410515 0.0 1022202
03:00+8ссв49605 0.0 1022189
06:00+7ссв410645 0.0 1023240
09:00+12ссв564952 0.0 1023879
12:00+15ссв56376 0.0 10232044
15:00+17ссв67315 0.0 10232291
18:00+17ссв67304 0.0 10242240
21:00+13ссв33421 0.0 102545
12 мая, ср
ср1200:00+11ссз33510 0.0 102536
03:00+9ссз345716 0.0 102547
06:00+9сз3457100 0.0 102583
09:00+14сз4643100 0.0 1024437
12:00+18сз4529100 0.0 10231297
15:00+21сз4627100 0.0 10213040
18:00+19сз7739100 0.0 10201983
21:00+15ссз5861100 0.1 1020425
13 мая, чт
чт1300:00+12с4787100 1.1 1021411
03:00+11с5786100 0.6 1020445
06:00+10с5984100 0.9 1021483
09:00+12с67647 0.1 1021809
12:00+16с554654 0.1 10211532
15:00+18ссз553144 0.0 10201911
18:00+18сз5628100 0.0 10201868
21:00+14зсз3341100 0.0 102134